Miscellaneous Local Product
Issued by NWS Hastings, NE

Home | Current Version | Previous Version | Graphics & Text | Print | Product List | Glossary On
Versions: 1 2 3 4 5 6 7 8 9 10 11 12 13 14 15 16 17 18 19 20 21 22 23 24 25 26 27 28 29 30 31 32 33 34 35 36 37 38 39 40 41 42 43 44 45 46 47 48 49 50
000
AXUS43 KGID 231202
MISGRI

GID CWA HOURLY WEATHER ROUNDUP
NATIONAL WEATHER SERVICE HASTINGS NE
700 AM CDT WED MAY 23 2018

NOTE: "FAIR" INDICATES FEW OR NO CLOUDS BELOW 12,000 FEET WITH NO
SIGNIFICANT WEATHER AND/OR OBSTRUCTIONS TO VISIBILITY.

...SOUTH CENTRAL NEBRASKA...

CITY           SKY/WX    TMP DP  RH WIND       PRES   REMARKS
GRAND ISLAND   CLOUDY    67  63  87 S10       30.01R
KEARNEY        CLOUDY    68  61  78 S13       30.00R
HASTINGS       CLEAR     67  63  87 SE8       30.02R
ORD            MOCLDY    67  62  84 SE5       29.97R
YORK           CLOUDY    68  68 100 S10       30.02S
AURORA         MOCLDY    68  65  91 S13       30.01R
LEXINGTON      PTCLDY    67  61  80 S8        29.97R
HOLDREGE       CLOUDY    66  62  87 S9        29.99R
HEBRON         CLOUDY    70  65  83 S8        30.03R

...NEBRASKA PANHANDLE...

CITY           SKY/WX    TMP DP  RH WIND       PRES   REMARKS
CHADRON        CLOUDY    56  56 100 SW3       29.94R
ALLIANCE       CLOUDY    53  53 100 CALM      29.94R
SCOTTSBLUFF    PTCLDY    51  51 100 NW5       29.96F
SIDNEY         MOCLDY    52  50  93 CALM      29.98R

...WESTERN AND NORTH CENTRAL NEBRASKA...

CITY           SKY/WX    TMP DP  RH WIND       PRES   REMARKS
VALENTINE      PTCLDY    68  62  81 S12       29.89S
ONEILL         CLOUDY    69  64  84 S9        29.97S
BROKEN BOW     MOCLDY    67  61  81 S9        29.97R
IMPERIAL       MOCLDY    61  58  90 SE10      29.96R
NORTH PLATTE   PTCLDY    66  59  78 S10G20    29.94S
MCCOOK         PTCLDY    64  59  83 S10       29.96R

...EASTERN NEBRASKA...

CITY           SKY/WX    TMP DP  RH WIND       PRES   REMARKS
NORFOLK        PTCLDY    68  64  87 SE9       30.00R
SO SIOUX CITY  PTCLDY    64  62  93 SE8       30.02R
TEKAMAH        CLEAR     66  63  90 SE10      30.03R
COLUMBUS       CLOUDY    69  64  84 S12       30.01S
ALBION         CLOUDY    68  64  88 SE7       30.00R
OMAHA EPPLEY   PTCLDY    68  64  87 S7        30.04R
OFFUTT AFB     CLEAR     64  64  99 CALM      30.04R
MILLARD        CLEAR     67  65  94 SE5       30.04S
LINCOLN        CLEAR     69  64  84 S7        30.03R
NEBRASKA CITY  CLEAR     67  67 100 S8        30.06R
BEATRICE       MOCLDY    71  66  86 S9        30.04R
FALLS CITY     CLEAR     66  64  93 SE3       30.06R

...NORTHERN KANSAS...

CITY           SKY/WX    TMP DP  RH WIND       PRES   REMARKS
GOODLAND       CLOUDY    66  50  56 S22G33    29.98R
HILL CITY      MOCLDY    67  62  84 S8        29.99R
NORTON         SUNNY     66  61  82 S8        29.98R
PHILLIPSBURG   PTCLDY    70  61  73 SE10      29.98R
SMITH CENTER     N/A     66  61  82 SE9       30.01R
HAYS           PTCLDY    67  62  84 S13       30.00S
RUSSELL        PTCLDY    68  65  90 S12       30.00R
CONCORDIA      PTCLDY    68  65  90 SE12      30.03R
SALINA         PTCLDY    69  67  93 S7        30.03R
TOPEKA         PTCLDY    66  66 100 CALM      30.06R



USA.gov is the U.S. government's official web portal to all federal, state and local government web resources and services.